Time,TemperatureF,DewpointF,PressureIn,WindDirection,WindDirectionDegrees,WindSpeedMPH,WindSpeedGustMPH,Humidity,HourlyPrecipIn,Conditions,Clouds,dailyrainin,SoftwareType,DateUTC
2013-04-13 00:03:00,34.0,-99.9,-100.00,North,-999,-999.0,-999.0,-999,0.00,,,0.37,,2013-04-13 04:03:00,
2013-04-13 00:12:00,34.0,-99.9,-100.00,North,-999,-999.0,-999.0,-999,0.00,,,0.37,,2013-04-13 04:12:00,
2013-04-13 00:23:00,34.0,-99.9,-100.00,North,-999,-999.0,-999.0,-999,0.00,,,0.37,,2013-04-13 04:23:00,
2013-04-13 00:30:00,33.0,-99.9,-100.00,North,-999,-999.0,-999.0,-999,0.00,,,0.37,,2013-04-13 04:30:00,
2013-04-13 01:03:00,33.0,-99.9,-100.00,North,-999,-999.0,-999.0,-999,0.00,,,0.37,,2013-04-13 05:03:00,
2013-04-13 01:12:00,33.0,-99.9,-100.00,North,-999,-999.0,-999.0,-999,0.00,,,0.37,,2013-04-13 05:12:00,
2013-04-13 01:23:00,33.0,-99.9,-100.00,North,-999,-999.0,-999.0,-999,0.00,,,0.37,,2013-04-13 05:23:00,
2013-04-13 01:30:00,33.0,-99.9,-100.00,North,-999,-999.0,-999.0,-999,0.00,,,0.37,,2013-04-13 05:30:00,
2013-04-13 02:03:00,33.0,-99.9,-100.00,North,-999,-999.0,-999.0,-999,0.00,,,0.37,,2013-04-13 06:03:00,
2013-04-13 02:12:00,33.0,-99.9,-100.00,North,-999,-999.0,-999.0,-999,0.00,,,0.37,,2013-04-13 06:12:00,
2013-04-13 02:25:00,33.0,-99.9,-100.00,North,-999,-999.0,-999.0,-999,0.00,,,0.37,,2013-04-13 06:25:00,
2013-04-13 02:30:00,33.0,-99.9,-100.00,North,-999,-999.0,-999.0,-999,0.01,,,0.38,,2013-04-13 06:30:00,
2013-04-13 03:09:00,33.0,-99.9,-100.00,North,-999,-999.0,-999.0,-999,0.01,,,0.38,,2013-04-13 07:09:00,
2013-04-13 03:17:00,33.0,-99.9,-100.00,North,-999,-999.0,-999.0,-999,0.01,,,0.38,,2013-04-13 07:17:00,
2013-04-13 03:25:00,33.0,-99.9,-100.00,North,-999,-999.0,-999.0,-999,0.01,,,0.38,,2013-04-13 07:25:00,
2013-04-13 03:30:00,32.0,-99.9,-100.00,North,-999,-999.0,-999.0,-999,0.03,,,0.41,,2013-04-13 07:30:00,
2013-04-13 04:09:00,32.0,-99.9,-100.00,North,-999,-999.0,-999.0,-999,0.03,,,0.41,,2013-04-13 08:09:00,
2013-04-13 04:28:00,32.0,-99.9,-100.00,North,-999,-999.0,-999.0,-999,0.03,,,0.41,,2013-04-13 08:28:00,
2013-04-13 04:30:00,32.0,-99.9,-100.00,North,-999,-999.0,-999.0,-999,0.00,,,0.41,,2013-04-13 08:30:00,
2013-04-13 05:09:00,32.0,-99.9,-100.00,North,-999,-999.0,-999.0,-999,0.00,,,0.41,,2013-04-13 09:09:00,
2013-04-13 05:16:00,32.0,-99.9,-100.00,North,-999,-999.0,-999.0,-999,0.00,,,0.41,,2013-04-13 09:16:00,
2013-04-13 05:27:00,32.0,-99.9,-100.00,North,-999,-999.0,-999.0,-999,0.00,,,0.41,,2013-04-13 09:27:00,
2013-04-13 06:18:00,31.0,-99.9,-100.00,North,-999,-999.0,-999.0,-999,0.00,,,0.40,,2013-04-13 10:18:00,
2013-04-13 06:26:00,31.0,-99.9,-100.00,North,-999,-999.0,-999.0,-999,0.00,,,0.40,,2013-04-13 10:26:00,
2013-04-13 06:30:00,32.0,-99.9,-100.00,North,-999,-999.0,-999.0,-999,0.00,,,0.40,,2013-04-13 10:30:00,
2013-04-13 07:09:00,32.0,-99.9,-100.00,North,-999,-999.0,-999.0,-999,0.00,,,0.40,,2013-04-13 11:09:00,
2013-04-13 07:14:00,32.0,-99.9,-100.00,North,-999,-999.0,-999.0,-999,0.00,,,0.40,,2013-04-13 11:14:00,
2013-04-13 07:30:00,32.0,-99.9,-100.00,North,-999,-999.0,-999.0,-999,0.00,,,0.39,,2013-04-13 11:30:00,
2013-04-13 08:09:00,32.0,-99.9,-100.00,North,-999,-999.0,-999.0,-999,0.00,,,0.39,,2013-04-13 12:09:00,
2013-04-13 08:18:00,32.0,-99.9,-100.00,North,-999,-999.0,-999.0,-999,0.00,,,0.39,,2013-04-13 12:18:00,
2013-04-13 08:30:00,34.0,-99.9,-100.00,North,-999,-999.0,-999.0,-999,0.00,,,0.39,,2013-04-13 12:30:00,
2013-04-13 09:10:00,34.0,-99.9,-100.00,North,-999,-999.0,-999.0,-999,0.00,,,0.39,,2013-04-13 13:10:00,
2013-04-13 09:30:00,36.0,-99.9,-100.00,North,-999,-999.0,-999.0,-999,0.00,,,0.39,,2013-04-13 13:30:00,
2013-04-13 10:17:00,36.0,-99.9,-100.00,North,-999,-999.0,-999.0,-999,0.00,,,0.39,,2013-04-13 14:17:00,
2013-04-13 10:25:00,36.0,-99.9,-100.00,North,-999,-999.0,-999.0,-999,0.00,,,0.39,,2013-04-13 14:25:00,
2013-04-13 10:30:00,36.0,-99.9,-100.00,North,-999,-999.0,-999.0,-999,0.00,,,0.39,,2013-04-13 14:30:00,
2013-04-13 11:16:00,36.0,-99.9,-100.00,North,-999,-999.0,-999.0,-999,0.00,,,0.39,,2013-04-13 15:16:00,
2013-04-13 11:30:00,37.0,-99.9,-100.00,North,-999,-999.0,-999.0,-999,0.00,,,0.39,,2013-04-13 15:30:00,
2013-04-13 12:09:00,37.0,-99.9,-100.00,North,-999,-999.0,-999.0,-999,0.00,,,0.39,,2013-04-13 16:09:00,
2013-04-13 12:19:00,37.0,-99.9,-100.00,North,-999,-999.0,-999.0,-999,0.00,,,0.39,,2013-04-13 16:19:00,
2013-04-13 12:27:00,37.0,-99.9,-100.00,North,-999,-999.0,-999.0,-999,0.00,,,0.39,,2013-04-13 16:27:00,
2013-04-13 12:30:00,40.0,-99.9,-100.00,North,-999,-999.0,-999.0,-999,0.00,,,0.33,,2013-04-13 16:30:00,
2013-04-13 13:10:00,40.0,-99.9,-100.00,North,-999,-999.0,-999.0,-999,0.00,,,0.33,,2013-04-13 17:10:00,
2013-04-13 13:23:00,40.0,-99.9,-100.00,North,-999,-999.0,-999.0,-999,0.00,,,0.33,,2013-04-13 17:23:00,
2013-04-13 13:30:00,45.0,-99.9,-100.00,North,-999,-999.0,-999.0,-999,0.00,,,0.23,,2013-04-13 17:30:00,
2013-04-13 14:09:00,45.0,-99.9,-100.00,North,-999,-999.0,-999.0,-999,0.00,,,0.23,,2013-04-13 18:09:00,
2013-04-13 14:18:00,45.0,-99.9,-100.00,North,-999,-999.0,-999.0,-999,0.00,,,0.23,,2013-04-13 18:18:00,
2013-04-13 14:26:00,45.0,-99.9,-100.00,North,-999,-999.0,-999.0,-999,0.00,,,0.23,,2013-04-13 18:26:00,
2013-04-13 14:30:00,43.0,-99.9,-100.00,North,-999,-999.0,-999.0,-999,0.00,,,0.12,,2013-04-13 18:30:00,
2013-04-13 15:03:00,43.0,-99.9,-100.00,North,-999,-999.0,-999.0,-999,0.00,,,0.12,,2013-04-13 19:03:00,
2013-04-13 15:13:00,43.0,-99.9,-100.00,North,-999,-999.0,-999.0,-999,0.00,,,0.12,,2013-04-13 19:13:00,
2013-04-13 15:23:00,43.0,-99.9,-100.00,North,-999,-999.0,-999.0,-999,0.00,,,0.12,,2013-04-13 19:23:00,
2013-04-13 15:30:00,47.0,-99.9,-100.00,North,-999,-999.0,-999.0,-999,0.00,,,0.07,,2013-04-13 19:30:00,
2013-04-13 16:02:00,47.0,-99.9,-100.00,North,-999,-999.0,-999.0,-999,0.00,,,0.07,,2013-04-13 20:02:00,
2013-04-13 16:13:00,47.0,-99.9,-100.00,North,-999,-999.0,-999.0,-999,0.00,,,0.07,,2013-04-13 20:13:00,
2013-04-13 16:22:00,47.0,-99.9,-100.00,North,-999,-999.0,-999.0,-999,0.00,,,0.07,,2013-04-13 20:22:00,
2013-04-13 16:30:00,45.0,-99.9,-100.00,North,-999,-999.0,-999.0,-999,0.00,,,0.06,,2013-04-13 20:30:00,
2013-04-13 17:02:00,45.0,-99.9,-100.00,North,-999,-999.0,-999.0,-999,0.00,,,0.06,,2013-04-13 21:02:00,
2013-04-13 17:13:00,45.0,-99.9,-100.00,North,-999,-999.0,-999.0,-999,0.00,,,0.06,,2013-04-13 21:13:00,
2013-04-13 17:22:00,45.0,-99.9,-100.00,North,-999,-999.0,-999.0,-999,0.00,,,0.06,,2013-04-13 21:22:00,
2013-04-13 18:03:00,48.0,-99.9,-100.00,North,-999,-999.0,-999.0,-999,0.00,,,0.06,,2013-04-13 22:03:00,
2013-04-13 18:13:00,48.0,-99.9,-100.00,North,-999,-999.0,-999.0,-999,0.00,,,0.06,,2013-04-13 22:13:00,
2013-04-13 18:23:00,48.0,-99.9,-100.00,North,-999,-999.0,-999.0,-999,0.00,,,0.06,,2013-04-13 22:23:00,
2013-04-13 18:30:00,46.0,-99.9,-100.00,North,-999,-999.0,-999.0,-999,0.00,,,0.06,,2013-04-13 22:30:00,
2013-04-13 19:03:00,46.0,-99.9,-100.00,North,-999,-999.0,-999.0,-999,0.00,,,0.06,,2013-04-13 23:03:00,
2013-04-13 19:12:00,46.0,-99.9,-100.00,North,-999,-999.0,-999.0,-999,0.00,,,0.06,,2013-04-13 23:12:00,
2013-04-13 19:23:00,46.0,-99.9,-100.00,North,-999,-999.0,-999.0,-999,0.00,,,0.06,,2013-04-13 23:23:00,
2013-04-13 19:30:00,43.0,-99.9,-100.00,North,-999,-999.0,-999.0,-999,0.00,,,0.06,,2013-04-13 23:30:00,
2013-04-13 20:03:00,43.0,-99.9,-100.00,North,-999,-999.0,-999.0,-999,0.00,,,0.06,,2013-04-14 00:03:00,
2013-04-13 20:12:00,43.0,-99.9,-100.00,North,-999,-999.0,-999.0,-999,0.00,,,0.06,,2013-04-14 00:12:00,
2013-04-13 20:23:00,43.0,-99.9,-100.00,North,-999,-999.0,-999.0,-999,0.00,,,0.06,,2013-04-14 00:23:00,
2013-04-13 20:30:00,44.0,-99.9,-100.00,North,-999,-999.0,-999.0,-999,0.00,,,0.04,,2013-04-14 00:30:00,
2013-04-13 21:03:00,44.0,-99.9,-100.00,North,-999,-999.0,-999.0,-999,0.00,,,0.04,,2013-04-14 01:03:00,
2013-04-13 21:13:00,44.0,-99.9,-100.00,North,-999,-999.0,-999.0,-999,0.00,,,0.04,,2013-04-14 01:13:00,
2013-04-13 21:23:00,44.0,-99.9,-100.00,North,-999,-999.0,-999.0,-999,0.00,,,0.04,,2013-04-14 01:23:00,
2013-04-13 21:30:00,44.0,-99.9,-100.00,North,-999,-999.0,-999.0,-999,0.00,,,0.04,,2013-04-14 01:30:00,
2013-04-13 22:03:00,44.0,-99.9,-100.00,North,-999,-999.0,-999.0,-999,0.00,,,0.04,,2013-04-14 02:03:00,
2013-04-13 22:13:00,44.0,-99.9,-100.00,North,-999,-999.0,-999.0,-999,0.00,,,0.04,,2013-04-14 02:13:00,
2013-04-13 22:23:00,44.0,-99.9,-100.00,North,-999,-999.0,-999.0,-999,0.00,,,0.04,,2013-04-14 02:23:00,
2013-04-13 22:30:00,43.0,-99.9,-100.00,North,-999,-999.0,-999.0,-999,0.00,,,0.04,,2013-04-14 02:30:00,
2013-04-13 23:03:00,43.0,-99.9,-100.00,North,-999,-999.0,-999.0,-999,0.00,,,0.04,,2013-04-14 03:03:00,
2013-04-13 23:13:00,43.0,-99.9,-100.00,North,-999,-999.0,-999.0,-999,0.00,,,0.04,,2013-04-14 03:13:00,
2013-04-13 23:23:00,43.0,-99.9,-100.00,North,-999,-999.0,-999.0,-999,0.00,,,0.04,,2013-04-14 03:23:00,
2013-04-13 23:30:00,42.0,-99.9,-100.00,North,-999,-999.0,-999.0,-999,0.00,,,0.04,,2013-04-14 03:30:00,